GSAT0225 (GALILEO 29)

Last updated on Mon Sep 21 2026 00:02:49 GMT+0000 (Coordinated Universal Time)

1 59598U 24079A 26262.84558484 .00000025 00000+0 00000+0 0 9997 2 59598 55.1809 98.4334 0001431 128.3592 231.3580 1.70474404 14925
UTC large
Height (km)
Speed (km/s)
/
Latitude / Longitude
Inclination (degrees)
Orbital Period (minutes)
Azimuth
Elevation
Range (km)
Doppler Factor

Next 0 passes for location: London (51.5072 / 0.1276)

No passes found over London.
GSAT0225 (GALILEO 29)